Tracking 23731 objects as of 26-Sep-2021
HD Live streaming from Space Station
objects crossing your sky now

STARLINK-1470

Track STARLINK-1470 now!
10-day predictions
STARLINK-1470 is classified as:


NORAD ID: 45772
Int'l Code: 2020-038AU
Perigee: 553.9 km
Apogee: 554.8 km
Inclination: 53.1 °
Period: 95.6 minutes
Semi major axis: 6925 km
RCS: Unknown
Launch date: June 13, 2020
Source: United States (US)
Launch site: AIR FORCE EASTERN TEST RANGE (AFETR)
aabbcc
Your satellite tracking list
Your tracking list is empty




NASA's NSSDC Master Catalog

Two Line Element Set (TLE):
1 45772U 20038AU  21268.36440541 -.00000017  00000-0  17719-4 0  9992
2 45772  53.0552 297.4872 0000681  78.6478 281.4587 15.06398116 71633
Source of the keplerian elements: AFSPC